Location: ????????
(37.6846°N, 24.0673°E)
Time: 15:03:46
(UTC+00:00)

Cosmos 1544 - Pass Details

Date: 14 July 2020
Orbit: 473 x 490 km, 82.5° (Epoch: 03 August)

Event Time Altitude Azimuth Distance (km) Brightness Sun altitude
Exits shadow 01:25:40 22° 159° (SSE) 1,088 4.6 -17.7°
Maximum altitude 01:27:41 48° 94° (E) 629 3.8 -17.4°
Drops below altitude 10° 01:31:09 10° 19° (NNE) 1,644 6.8 -16.9°
Sets 01:33:17 0° 14° (NNE) 2,527 7.8 -16.7°
